TimeEDT,TemperatureF,Dew PointF,Humidity,Sea Level PressureIn,VisibilityMPH,Wind Direction,Wind SpeedMPH,Gust SpeedMPH,PrecipitationIn,Events,Conditions,WindDirDegrees,DateUTC
12:53 AM,71.1,70.0,96,29.87,7.0,WSW,3.5,-,N/A,,Clear,250,2013-08-23 04:53:00
1:53 AM,70.0,69.1,97,29.87,5.0,Calm,Calm,-,N/A,,Clear,0,2013-08-23 05:53:00
2:53 AM,70.0,68.0,93,29.87,4.0,Calm,Calm,-,N/A,,Clear,0,2013-08-23 06:53:00
3:53 AM,71.1,66.9,87,29.88,9.0,NNW,4.6,-,N/A,,Clear,330,2013-08-23 07:53:00
4:53 AM,72.0,66.0,81,29.88,10.0,NNW,8.1,-,N/A,,Mostly Cloudy,340,2013-08-23 08:53:00
5:53 AM,71.1,64.9,81,29.90,9.0,NNW,9.2,-,N/A,,Clear,340,2013-08-23 09:53:00
6:23 AM,71.6,62.6,73,29.91,2.0,North,9.2,-,N/A,,Haze,350,2013-08-23 10:23:00
6:35 AM,69.8,62.6,78,29.92,6.0,North,8.1,-,N/A,,Haze,350,2013-08-23 10:35:00
6:53 AM,71.1,63.0,75,29.92,10.0,North,9.2,-,N/A,,Clear,360,2013-08-23 10:53:00
7:53 AM,71.1,62.1,73,29.95,10.0,North,10.4,-,N/A,,Clear,360,2013-08-23 11:53:00
8:53 AM,73.0,63.0,71,29.96,10.0,North,12.7,-,N/A,,Clear,360,2013-08-23 12:53:00
9:53 AM,75.0,60.1,60,29.97,10.0,North,15.0,-,N/A,,Clear,360,2013-08-23 13:53:00
10:53 AM,78.1,57.9,50,29.97,10.0,North,10.4,23.0,N/A,,Clear,10,2013-08-23 14:53:00
11:53 AM,80.1,53.1,39,29.97,10.0,NNE,15.0,-,N/A,,Clear,20,2013-08-23 15:53:00
12:53 PM,81.0,55.0,41,29.97,10.0,North,12.7,23.0,N/A,,Clear,10,2013-08-23 16:53:00
1:53 PM,82.0,55.9,41,29.98,10.0,NNW,11.5,-,N/A,,Clear,340,2013-08-23 17:53:00
2:53 PM,80.1,55.0,42,29.98,10.0,NNW,11.5,18.4,N/A,,Clear,340,2013-08-23 18:53:00
3:53 PM,79.0,54.0,42,29.98,10.0,North,11.5,-,N/A,,Clear,360,2013-08-23 19:53:00
4:53 PM,79.0,53.1,40,29.99,10.0,NNW,9.2,17.3,N/A,,Clear,340,2013-08-23 20:53:00
5:53 PM,78.1,54.0,43,29.99,10.0,North,9.2,-,N/A,,Clear,360,2013-08-23 21:53:00
6:53 PM,78.1,54.0,43,30.00,10.0,North,9.2,-,N/A,,Clear,360,2013-08-23 22:53:00
7:53 PM,75.0,53.1,46,30.02,10.0,NNE,12.7,-,N/A,,Clear,20,2013-08-23 23:53:00
8:53 PM,72.0,55.9,57,30.05,10.0,North,4.6,-,N/A,,Clear,350,2013-08-24 00:53:00
9:53 PM,72.0,55.0,55,30.06,10.0,North,6.9,-,N/A,,Clear,360,2013-08-24 01:53:00
10:53 PM,68.0,57.0,68,30.08,10.0,NE,4.6,-,N/A,,Clear,40,2013-08-24 02:53:00
11:53 PM,66.9,57.9,73,30.10,10.0,NNE,4.6,-,N/A,,Clear,30,2013-08-24 03:53:00